P/L 153 DEB

基本信息
目录编号:
19245
目录名称:
P/L 153 DEB
国际标识:
1967-053K
轨道中心:
EARTH
物体状态:
在轨
发射日期:
1967-05-31 UTC
轨道信息
数据来源: 国际轨道数据
星历时间: 2026-07-13T22:48:09+0800
半长轴: 7193.292km
偏心率: 0.0001922
轨道倾角: 69.957°
近地点辐角: 91.791°
升交点赤经: 278.687°
平近点角: 30.957°
近地点: 813.772km
远地点: 816.538km
周期: 101.193分钟
每日圈数: 14.230209
详细信息
发射场:
AFWTR
轨道高度:
LEO
数据来源:
AOE Integration Group
参考系:
TEME
时间系统:
UTC
历元类型:
SGP4
2D轨道图
3D轨道图
轨道高度分析图
轨道倾角分析图
轨道综合分析图
查看轨道综合分析图